Date String (YYYY-MM-DD hh:mm:ss) UTC,Instrument flags,absolute air pressure of the measurement (hPa),sample flow rate (lpm),inlet stack bypass flow (lpm),air temperature of the measurement (°C),ambient temperature measured by the external sensor (°C),aerosol sample conditioner tube jacket temperature (°C),OPC LED temperature (°C),internal box temperature (°C),relative humidity of the measurement (%),span deviation,mass concentration of particles derived from Lorenz-Mie calculation of OPC scattering (μg/m³),mass concentration of particles derived from Lorenz-Mie calculation of OPC scattering (μg/m³),mass concentration of particles derived from Lorenz-Mie calculation of OPC scattering (μg/m³)
DateTimeUTC,F1_M11,P_M11,Q1_M11,Q2_M11,T1_M11,T2_M11,T3_M11,T4_M11,T5_M11,U1_M11,ZSPAN_M11,X2_M11,X0_M11,X1_M11
2023-10-26 00:00:00,SystemResetWarning,0824.0,5.01,000.00,028.7,025.1,000.0,037.1,030.2,23.4,-002.7,0016.46,0031.02,0014.19
2023-10-26 00:01:00,SystemResetWarning,0824.0,5.01,000.00,028.7,025.5,000.0,037.1,030.2,23.6,-002.8,0016.43,0030.36,0014.19
2023-10-26 00:02:00,SystemResetWarning,0824.0,4.99,000.00,028.7,025.8,000.0,037.1,030.2,23.6,-002.9,0016.45,0030.80,0014.21
2023-10-26 00:03:00,SystemResetWarning,0824.0,5.00,000.00,028.7,026.2,000.0,037.1,030.3,23.7,-002.8,0016.39,0031.74,0014.21
2023-10-26 00:04:00,SystemResetWarning,0824.0,5.00,000.00,028.7,026.6,000.0,037.1,030.3,23.7,-002.9,0016.47,0031.63,0014.21
2023-10-26 00:05:00,SystemResetWarning,0824.0,4.99,000.00,028.7,026.9,000.0,037.1,030.4,23.6,-002.9,0016.49,0032.15,0014.22
2023-10-26 00:06:00,SystemResetWarning,0824.0,5.00,000.00,028.7,027.1,000.0,037.1,030.5,23.6,-002.8,0016.52,0032.19,0014.21
2023-10-26 00:07:00,SystemResetWarning,0824.0,5.01,000.00,028.8,027.3,000.0,037.1,030.6,23.5,-002.8,0016.48,0032.35,0014.20
2023-10-26 00:08:00,SystemResetWarning,0824.1,5.00,000.00,028.8,027.5,000.0,037.1,030.6,23.5,-002.7,0016.51,0031.71,0014.19
2023-10-26 00:09:00,SystemResetWarning,0824.1,5.00,000.00,028.8,027.6,000.0,037.1,030.7,23.4,-002.8,0016.57,0030.66,0014.19
2023-10-26 00:10:00,SystemResetWarning,0824.0,5.01,000.00,028.9,027.8,000.0,037.2,030.7,23.4,-002.7,0016.61,0029.88,0014.19
2023-10-26 00:11:00,SystemResetWarning,0824.1,5.00,000.00,028.9,027.9,000.0,037.2,030.8,23.3,-002.7,0016.61,0028.43,0014.21
2023-10-26 00:12:00,SystemResetWarning,0824.0,4.98,000.00,028.9,027.2,000.0,037.2,030.7,23.3,-002.7,0016.70,0030.01,0014.23
2023-10-26 00:13:00,SystemResetWarning,0824.0,5.01,000.00,028.9,025.3,000.0,037.1,030.5,23.3,-002.7,0016.67,0030.14,0014.23
2023-10-26 00:14:00,SystemResetWarning,0824.0,5.00,000.00,028.8,024.8,000.0,037.1,030.4,23.4,-002.8,0016.60,0029.09,0014.21
2023-10-26 00:15:00,SystemResetWarning,0824.0,5.01,000.00,028.7,025.0,000.0,037.1,030.1,23.6,-002.8,0016.59,0029.45,0014.21
2023-10-26 00:16:00,SystemResetWarning,0824.0,5.00,000.00,028.6,025.3,000.0,037.1,030.1,23.7,-002.6,0016.60,0029.03,0014.24
2023-10-26 00:17:00,SystemResetWarning,0824.0,5.00,000.00,028.6,025.7,000.0,037.1,030.2,23.7,-002.6,0016.63,0029.06,0014.29
2023-10-26 00:18:00,SystemResetWarning,0824.0,5.00,000.00,028.6,026.1,000.0,037.1,030.2,23.7,-002.9,0016.68,0029.38,0014.34
2023-10-26 00:19:00,SystemResetWarning,0824.0,4.99,000.00,028.6,026.5,000.0,037.1,030.3,23.7,-003.0,0016.63,0029.96,0014.35
2023-10-26 00:20:00,SystemResetWarning,0824.1,4.99,000.00,028.6,026.7,000.0,037.1,030.3,23.7,-002.7,0016.62,0031.40,0014.38
2023-10-26 00:21:00,SystemResetWarning,0824.1,5.00,000.00,028.6,027.0,000.0,037.1,030.4,23.7,-002.7,0016.74,0032.42,0014.44
2023-10-26 00:22:00,SystemResetWarning,0824.1,5.00,000.00,028.7,027.2,000.0,037.1,030.4,23.7,-002.6,0016.82,0034.26,0014.48
2023-10-26 00:23:00,SystemResetWarning,0824.1,5.00,000.00,028.7,027.4,000.0,037.1,030.5,23.6,-002.6,0016.79,0033.93,0014.49
2023-10-26 00:24:00,SystemResetWarning,0824.0,5.01,000.00,028.7,027.5,000.0,037.1,030.6,23.6,-002.5,0016.88,0034.29,0014.50
2023-10-26 00:25:00,SystemResetWarning,0824.0,5.00,000.00,028.8,027.6,000.0,037.1,030.6,23.5,-002.6,0016.97,0034.56,0014.53
2023-10-26 00:26:00,SystemResetWarning,0824.1,5.00,000.00,028.8,027.7,000.0,037.1,030.7,23.4,-002.6,0016.95,0033.94,0014.53
2023-10-26 00:27:00,SystemResetWarning,0824.2,5.00,000.00,028.8,027.8,000.0,037.1,030.7,23.3,-002.6,0017.10,0035.59,0014.56
2023-10-26 00:28:00,SystemResetWarning,0824.2,4.99,000.00,028.9,027.9,000.0,037.2,030.7,23.2,-002.7,0017.19,0037.38,0014.59
2023-10-26 00:29:00,SystemResetWarning,0824.2,4.99,000.00,028.9,027.3,000.0,037.2,030.7,23.2,-002.7,0017.24,0037.69,0014.59
2023-10-26 00:30:00,SystemResetWarning,0824.1,5.00,000.00,028.8,025.3,000.0,037.1,030.4,23.2,-002.7,0017.24,0037.30,0014.61
2023-10-26 00:31:00,SystemResetWarning,0824.2,5.01,000.00,028.8,024.6,000.0,037.1,030.3,23.3,-002.9,0017.27,0036.81,0014.61
2023-10-26 00:32:00,SystemResetWarning,0824.2,5.01,000.00,028.6,024.8,000.0,037.1,030.1,23.5,-003.0,0017.23,0037.57,0014.62
2023-10-26 00:33:00,SystemResetWarning,0824.2,4.99,000.00,028.6,025.2,000.0,037.1,030.0,23.6,-002.9,0017.28,0036.81,0014.64
2023-10-26 00:34:00,SystemResetWarning,0824.2,5.00,000.00,028.5,025.6,000.0,037.1,030.1,23.6,-002.9,0017.26,0036.76,0014.64
2023-10-26 00:35:00,SystemResetWarning,0824.2,5.01,000.00,028.5,026.0,000.0,037.1,030.1,23.6,-002.8,0017.22,0038.08,0014.66
2023-10-26 00:36:00,SystemResetWarning,0824.2,5.00,000.00,028.5,026.3,000.0,037.1,030.2,23.7,-002.7,0017.34,0039.00,0014.67
2023-10-26 00:37:00,SystemResetWarning,0824.2,4.99,000.00,028.6,026.6,000.0,037.1,030.2,23.7,-002.7,0017.45,0040.06,0014.66
2023-10-26 00:38:00,SystemResetWarning,0824.2,4.99,000.00,028.6,026.8,000.0,037.0,030.3,23.7,-002.7,0017.40,0039.34,0014.63
2023-10-26 00:39:00,SystemResetWarning,0824.1,5.00,000.00,028.6,027.0,000.0,037.0,030.4,23.7,-002.6,0017.44,0038.29,0014.60
2023-10-26 00:40:00,SystemResetWarning,0824.1,5.00,000.00,028.6,027.2,000.0,037.0,030.4,23.7,-002.5,0017.45,0038.09,0014.58
2023-10-26 00:41:00,SystemResetWarning,0824.1,5.00,000.00,028.7,027.3,000.0,037.0,030.4,23.6,-002.4,0017.47,0039.61,0014.58
2023-10-26 00:42:00,SystemResetWarning,0824.2,5.01,000.00,028.7,027.4,000.0,037.0,030.5,23.5,-002.5,0017.42,0039.95,0014.56
2023-10-26 00:43:00,SystemResetWarning,0824.3,5.01,000.00,028.7,027.5,000.0,037.1,030.6,23.5,-002.2,0017.39,0039.49,0014.54
2023-10-26 00:44:00,SystemResetWarning,0824.2,5.00,000.00,028.8,027.6,000.0,037.1,030.6,23.4,-002.2,0017.33,0039.97,0014.51
2023-10-26 00:45:00,SystemResetWarning,0824.3,5.00,000.00,028.8,027.7,000.0,037.1,030.6,23.3,-002.3,0017.34,0039.72,0014.51
2023-10-26 00:46:00,SystemResetWarning,0824.3,4.99,000.00,028.8,027.8,000.0,037.1,030.7,23.2,-002.4,0017.39,0038.72,0014.50
2023-10-26 00:47:00,SystemResetWarning,0824.3,4.99,000.00,028.9,027.8,000.0,037.2,030.7,23.2,-002.6,0017.34,0038.71,0014.50
2023-10-26 00:48:00,SystemResetWarning,0824.2,5.00,000.00,028.9,027.9,000.0,037.2,030.7,23.1,-002.5,0017.19,0039.11,0014.51
2023-10-26 00:49:00,SystemResetWarning,0824.3,5.00,000.00,028.9,026.7,000.0,037.2,030.7,23.1,-002.5,0017.16,0038.78,0014.55
2023-10-26 00:50:00,SystemResetWarning,0824.2,5.00,000.00,028.8,024.9,000.0,037.1,030.4,23.1,-002.3,0017.08,0038.76,0014.58
2023-10-26 00:51:00,SystemResetWarning,0824.2,5.01,000.00,028.8,024.6,000.0,037.1,030.3,23.2,-002.1,0016.98,0037.23,0014.59
2023-10-26 00:52:00,SystemResetWarning,0824.2,5.01,000.00,028.6,024.8,000.0,037.1,030.1,23.4,-002.3,0016.97,0035.84,0014.60
2023-10-26 00:53:00,SystemResetWarning,0824.2,4.99,000.00,028.6,025.2,000.0,037.1,030.0,23.5,-002.3,0017.02,0034.88,0014.63
2023-10-26 00:54:00,SystemResetWarning,0824.2,5.00,000.00,028.5,025.6,000.0,037.1,030.1,23.6,-002.4,0017.05,0034.91,0014.63
2023-10-26 00:55:00,SystemResetWarning,0824.2,5.02,000.00,028.5,026.0,000.0,037.1,030.1,23.6,-002.6,0017.15,0034.70,0014.65
2023-10-26 00:56:00,SystemResetWarning,0824.1,5.00,000.00,028.5,026.3,000.0,037.0,030.2,23.6,-002.6,0017.15,0034.93,0014.64
2023-10-26 00:57:00,SystemResetWarning,0824.1,4.99,000.00,028.5,026.6,000.0,037.0,030.2,23.6,-002.5,0017.11,0034.27,0014.65
2023-10-26 00:58:00,SystemResetWarning,0824.2,4.99,000.00,028.6,026.8,000.0,037.0,030.3,23.6,-002.5,0017.08,0033.05,0014.65
2023-10-26 00:59:00,SystemResetWarning,0824.3,5.00,000.00,028.6,027.0,000.0,037.0,030.3,23.5,-002.5,0017.12,0033.27,0014.64
